Regional Weather Roundup
Issued by NWS

Home | Current Version | Previous Version | Text Only | Print | Product List | Glossary On
Versions: 1 2 3 4 5 6 7 8 9 10 11 12 13 14 15 16 17 18 19 20 21 22 23 24 25 26 27 28 29 30 31 32 33 34 35 36 37 38 39 40 41 42 43 44 45 46 47 48 49 50
290
ASUS42 KTBW 241817
RWRFL
FLORIDA REGIONAL WEATHER ROUNDUP
NATIONAL WEATHER SERVICE TAMPA BAY RUSKIN FL
200 PM EDT SAT JUN 24 2017

NOTE: "FAIR" INDICATES FEW OR NO CLOUDS BELOW 12,000 FEET WITH NO
SIGNIFICANT WEATHER AND/OR OBSTRUCTIONS TO VISIBILITY.

FLZ001>010-012>015-112-114-115-241900-
PANHANDLE FLORIDA

CITY           SKY/WX    TMP DP  RH WIND       PRES   REMARKS
PENSACOLA      PTSUNNY   89  75  63 W7        30.04S HX  99
PENSACOLA NAS  PTSUNNY   87  77  72 SW14G23   30.04S HX  99
MILTON NAS     PTSUNNY   84  74  71 NW7       30.05
CRESTVIEW      RAIN      81  75  82 NW6       30.06R
DUKE FIELD     LGT RAIN  84  73  70 NW13      30.04R
VALPARAISO     PTSUNNY   86  76  73 S15       30.05S HX  96
MARY ESTHER    PTSUNNY   86  73  64 S13G20    30.04S
PANAMA CITY    PTSUNNY   86  74  67 SW13      30.04S
TYNDALL AFB    PTSUNNY   85  76  73 SW10      30.07S HX  95
APALACHICOLA   SUNNY     87  79  76 S10       30.06S HX 101

STATION/POSITION SKY/WX   TEMP    WIND        PRES    WAVE   SWELL
                          AIR SEA DIR/SP/G            HT/PER HT/PER
                          (F)     (DEG/KT/KT) (MB)    (FT/S) (FT/S)
30.1N   87.6W              81 82  250/ 10/ 12 1017.3F   3/ 6   2/ 6
29.2N   88.2W              82 83  220/  6/  8 1018.0F   3/ 7   3/ 7
28.8N   86.0W              81 84  210/  2/  4 1018.2    2/ 6   2/ 6
PANAMA CITY BEAC           82 84  240/  9/ 11 1018.4S
TOWER C                    81     230/  7/  8 1018.9F
28.5N   84.5W              82 85  160/  4/  4 1018.5S   2/ 6   2/ 6

$$
FLZ011-016>038-118-127-128-134-139-239-241900-
NORTH FLORIDA

CITY           SKY/WX    TMP DP  RH WIND       PRES   REMARKS
MARIANNA       MOSUNNY   91  73  55 SW9       30.02F HX  99
TALLAHASSEE    MOSUNNY   92  70  48 SW9       30.04F HX  97
PERRY          MOSUNNY   90  74  59 SW9       30.07F HX  98
CROSS CITY     MOSUNNY   90  72  55 W7        30.06F HX  96
LAKE CITY      FAIR      88  72  58 W8        30.06F
GAINESVILLE    MOSUNNY   91  73  55 SW6       30.06F HX  99
WILLISTON      SUNNY     93  73  52 E9        30.06F HX 102
PALATKA        FAIR      91  73  55 W3        30.06F HX 100
MAYPORT NAS    PTSUNNY   86  75  69 SE10      30.05F HX  95
JACKSONVILLE   MOSUNNY   90  72  55 W10       30.04F HX  97
JAX NAS        MOSUNNY   93  71  48 SW6       30.05F HX 100
FERNANDINA BEA FAIR      95  73  49 SW10G17   30.04F HX 105
ST AUGUSTINE   PTSUNNY   87  77  72 SE13      30.06F HX  99

STATION/POSITION SKY/WX   TEMP    WIND        PRES    WAVE   SWELL
                          AIR SEA DIR/SP/G            HT/PER HT/PER
                          (F)     (DEG/KT/KT) (MB)    (FT/S) (FT/S)
SHELL POINT      NOT AVBL
KEATON BEACH               83     230/  9/ 11 1018.1F
CEDAR KEY                  85     230/  5/  6 1019.3S
FERNANDINA                 92 84  230/  4/ 10 1018.2F
30.7N   81.3W                 82                N/A     2/ 9
MAYPORT                    85 82  110/  6/  9 1018.1F
31.4N   80.9W              81 83  180/ 12/ 14 1017.2F   2/ 5   2/10
ST AUGUSTINE               79 79  140/ 11/ 12 1018.2F

$$
FLZ040-043>046-052-053-057-058-063-144-241900-
INTERIOR CENTRAL FLORIDA

CITY           SKY/WX    TMP DP  RH WIND       PRES   REMARKS
THE VILLAGES     N/A     91  75  59 MISG      29.97F HX 102
LEESBURG       SUNNY     92  74  55 S7        30.08F HX 101
SANFORD        MOSUNNY   91  68  46 S7        30.07F HX  95
ORLANDO EXEC   SUNNY     92  70  48 CALM      30.07F HX  97
ORLANDO INTL   MOSUNNY   88  71  57 S6        30.07F
KISSIMMEE      SUNNY     91  73  55 SE8       30.08F HX  99
WINTER HAVEN   MOSUNNY   91  67  44 VRB5      30.09F
LAKELAND       PTSUNNY   90  72  55 SW6       30.08F HX  96
BARTOW         PTSUNNY   91  68  46 SW9       30.08F HX  95
SEBRING        FAIR      93  70  46 S8        30.08F HX  99
OKEECHOBEE     SUNNY     90  72  55 SE9       30.10S HX  96

$$
FLZ041-047-054-059-064-141-147-241900-
EAST CENTRAL FLORIDA

CITY           SKY/WX    TMP DP  RH WIND       PRES   REMARKS
ORMOND BEACH   MOSUNNY   91  73  55 W9        30.08S HX 100
DAYTONA BEACH  PTSUNNY   92  73  53 SW5       30.06F HX 100
DELAND         MOSUNNY   93  70  46 W8        30.06F HX  99
NEW SMYRNA BEA MOSUNNY   91  73  55 E6        30.08F HX 100
JFK SPACE CTR  MOSUNNY   91  76  61 SE12      30.07F HX 104
TITUSVILLE     PTSUNNY   91  75  59 S12       30.09S HX 102
CAPE CANAVERAL MOSUNNY   91  75  59 SE14      30.07F HX 101
MELBOURNE      MOSUNNY   90  74  59 SE15      30.08F HX  99
VERO BEACH     MOSUNNY   90  74  59 SE15      30.09F HX  99
FT PIERCE      LGT RAIN  85  75  72 SE9       30.10S
STUART         MOSUNNY   91  77  62 E12G22    30.10F HX 105

STATION/POSITION SKY/WX   TEMP    WIND        PRES    WAVE   SWELL
                          AIR SEA DIR/SP/G            HT/PER HT/PER
                          (F)     (DEG/KT/KT) (MB)    (FT/S) (FT/S)
28.5N   80.2W              82 82  170/  8/  8 1020.7F   2/ 7   2/ 7
28.9N   78.5W              83 83  180/ 10/ 14 1019.9F   4/ 9   3/ 9
TRIDENT PIER               86 82  120/  8/ 12 1020.6F
28.4N   80.5W                 80                N/A     2/ 9
27.5N   80.2W                 79                N/A     2/ 8

$$
FLZ050-056-061-142-242-148-248-149-249-151-251-155-255-
160-260-241900-
WEST CENTRAL FLORIDA

CITY           SKY/WX    TMP DP  RH WIND       PRES   REMARKS
CRYSTAL RIVER  PTSUNNY   90  73  58 W10       30.08S HX  98
INVERNESS      CLOUDY    88  77  70 SW5       30.08F HAZE    HX 100
BROOKSVILLE    PTSUNNY   92  73  53 S6        30.08F HX 100
CLEARWATER AIR CLOUDY    84  73  70 W9        30.08F
ST PETE CLEARW PTSUNNY   90  73  57 S8        30.07F HX  98
TAMPA INTL     PTSUNNY   90  71  53 SW8       30.08F HX  96
TAMPA EXEC     CLOUDY    91  72  52 SW5       30.08F HX  98
PLANT CITY     MOSUNNY   93  72  49 MISG      30.10F HX 100
MACDILL AFB    PTSUNNY   91  77  63 SW6       30.08F HX 105
PETER O KNIGHT CLOUDY    91  77  62 S7        30.08F HX 105
ST PETERSBURG  MOSUNNY   87  72  60 VRB7      30.06F
SARASOTA       PTSUNNY   87  74  64 SW9       30.07F HX  95
VENICE         FAIR      88  75  66 SW12      30.08F HX  97

STATION/POSITION SKY/WX   TEMP    WIND        PRES    WAVE   SWELL
                          AIR SEA DIR/SP/G            HT/PER HT/PER
                          (F)     (DEG/KT/KT) (MB)    (FT/S) (FT/S)
27.3N   84.2W                 83                N/A     2/ 6
CLEARWATER BEACH           83 86  230/ 10/ 12 1018.9F
MIDDLE TAMPA BAY           84     270/  8/ 10 1019.0F
VENICE                     85 87  210/  9/ 11 1018.7F

$$
FLZ066-069-070-075>078-162-262-165-265-241900-
SOUTHWEST FLORIDA AND KEYS

CITY           SKY/WX    TMP DP  RH WIND       PRES   REMARKS
PUNTA GORDA    MOSUNNY   92  71  50 W7        30.08F HX  98
FT MYERS       PTSUNNY   90  75  61 W8        30.06F HX 100
SOUTHWEST INTL PTSUNNY   91  72  53 VRB6      30.06F HX  98
NAPLES         MOSUNNY   90  74  59 SW14      30.06F HX  99
MARCO ISLAND     N/A     91  72  52 S8        30.07F HX  98
IMMOKALEE      FAIR      91  72  52 SE10      30.08F HX  98
MARATHON       SUNNY     89  78  70 E10G17    30.07F HX 103
KEY WEST NAS   PTSUNNY   89  78  70 E16       30.06F HX 103
KEY WEST INTL  MOSUNNY   89  77  67 E13       30.07F HX 101

STATION/POSITION SKY/WX   TEMP    WIND        PRES    WAVE   SWELL
                          AIR SEA DIR/SP/G            HT/PER HT/PER
                          (F)     (DEG/KT/KT) (MB)    (FT/S) (FT/S)
NAPLES                        88  200/ 14/ 16 1018.3F
DRY TORTUGAS               83     120/ 12/ 13 1018.1F
SAND KEY                   83     130/ 13/ 14 1018.7F
MOLASSES REEF              83 84  130/ 11/ 12 1018.9F

$$
FLZ067-068-071>074-168-172>174-241900-
SOUTHEAST FLORIDA

CITY           SKY/WX    TMP DP  RH WIND       PRES   REMARKS
W PALM BEACH   PTSUNNY   89  74  60 SE14      30.10F HX  98
BOCA RATON     MOSUNNY   88  75  66 SE10      30.10F HX  97
FT LAUDER-EXEC MOSUNNY   86  71  60 SE12G20   30.09F
FT LAUDERDALE  PTSUNNY   88  75  65 SE16      30.09F HX  97
POMPANO BEACH  SUNNY     89  76  65 SE10G21   30.10S HX 100
PEMBROKE PINES MOSUNNY   91  72  53 SE12      30.11S HX  98
OPA LOCKA      SUNNY     90  74  59 E10G18    30.10S HX  99
MIAMI          PTSUNNY   90  73  57 SE9G20    30.09F HX  98
WEST KENDALL   MOSUNNY   90  72  55 SE13      30.09F HX  97
HOMESTEAD      PTSUNNY   88  78  72 E13       30.08F HX 100

STATION/POSITION SKY/WX   TEMP    WIND        PRES    WAVE   SWELL
                          AIR SEA DIR/SP/G            HT/PER HT/PER
                          (F)     (DEG/KT/KT) (MB)    (FT/S) (FT/S)
PORT EVERGLADES            85     140/  7/  9 1019.4F
VIRGINIA KEY               84 86  110/  9/ 11 1018.7F
LAKE WORTH                 83 83  150/ 11/ 13 1020.3F
FOWEY ROCKS                83 83  100/  9/ 10 1019.7F
SETTLEMENT POINT           85     170/ 10/ 12 1019.6F

$$





USA.gov is the U.S. government's official web portal to all federal, state and local government web resources and services.